軌道要素
Epoch 2013 May 28.0 TT = JDT 2456440.5
T 2013 May 25.25953 TT MPC
q 2.2526125 (2000.0) P Q
z +0.0013151 Peri. 18.75851 -0.03877656 +0.09685452
+/-0.0000066 Node 266.10873 -0.99584820 -0.08577702
e 0.9970376 Incl. 85.44459 -0.08235739 +0.99159543
From 281 observations 2013 Mar. 29-Aug. 27, mean residual 0".6.
|